DAL2999 KATL-KMKE

Flight info

Callsign DAL2999
Flight time 1h 37m
Altitude 34000
Route VARNM2 RESPE IIU J89 MACES VINNE BRAVE EXARR
Aircraft A321/M-SDE3FGHIRWY/LB1

Departure

Time 2026-05-09 12:02
Airport Hartsfield Jackson Atlanta International Airport (KATL)

Arrival

Time 2026-05-09 13:39
Airport General Mitchell International Airport (KMKE)
Time Latitude Longitude Altitude Speed Heading
2026-05-09 11:20 33.64018 -84.43201 1007 ft 0 kts 268°
2026-05-09 11:53 33.64020 -84.43183 1006 ft 4 kts 268°
2026-05-09 11:53 33.64023 -84.43152 1006 ft 4 kts 242°
2026-05-09 11:53 33.64040 -84.43132 1006 ft 4 kts 191°
2026-05-09 11:54 33.64049 -84.43130 1006 ft 0 kts 180°
2026-05-09 11:56 33.64041 -84.43130 1006 ft 2 kts 180°
2026-05-09 11:56 33.64030 -84.43130 1006 ft 4 kts 180°
2026-05-09 11:56 33.63967 -84.43130 1006 ft 14 kts 180°
2026-05-09 11:57 33.63872 -84.43129 1006 ft 13 kts 180°
2026-05-09 11:57 33.63783 -84.43129 1006 ft 12 kts 180°
2026-05-09 11:57 33.63701 -84.43129 1006 ft 11 kts 172°
2026-05-09 11:57 33.63665 -84.43064 1006 ft 10 kts 97°
2026-05-09 11:58 33.63664 -84.42969 1006 ft 13 kts 91°
2026-05-09 11:58 33.63663 -84.42844 1006 ft 16 kts 87°
2026-05-09 11:58 33.63657 -84.42696 1007 ft 20 kts 94°
2026-05-09 11:58 33.63657 -84.42516 1007 ft 23 kts 88°
2026-05-09 11:59 33.63656 -84.42304 1007 ft 27 kts 90°
2026-05-09 11:59 33.63655 -84.42061 1007 ft 31 kts 90°
2026-05-09 11:59 33.63656 -84.41786 1006 ft 35 kts 90°
2026-05-09 11:59 33.63654 -84.41480 1006 ft 39 kts 90°
2026-05-09 12:00 33.63656 -84.41145 1006 ft 42 kts 90°
2026-05-09 12:00 33.63655 -84.40840 1006 ft 16 kts 90°
2026-05-09 12:00 33.63635 -84.40754 1007 ft 10 kts 144°
2026-05-09 12:00 33.63575 -84.40743 1007 ft 8 kts 179°
2026-05-09 12:01 33.63525 -84.40744 1007 ft 7 kts 180°
2026-05-09 12:01 33.63475 -84.40764 1007 ft 8 kts 246°
2026-05-09 12:01 33.63471 -84.40881 1007 ft 35 kts 270°
2026-05-09 12:01 33.63470 -84.41455 1006 ft 100 kts 270°
2026-05-09 12:02 33.63470 -84.42499 1008 ft 148 kts 270°
2026-05-09 12:02 33.63474 -84.43885 1119 ft 176 kts 268°
2026-05-09 12:02 33.63470 -84.45342 1720 ft 173 kts 268°
2026-05-09 12:02 33.63452 -84.46768 2373 ft 169 kts 268°
2026-05-09 12:03 33.63452 -84.48176 2862 ft 172 kts 268°
2026-05-09 12:03 33.63456 -84.49678 2997 ft 192 kts 269°
2026-05-09 12:03 33.63732 -84.51356 3123 ft 217 kts 293°
2026-05-09 12:03 33.64727 -84.52834 3357 ft 244 kts 312°
2026-05-09 12:04 33.65963 -84.54282 3993 ft 251 kts 311°
2026-05-09 12:04 33.67218 -84.55757 4808 ft 253 kts 311°
2026-05-09 12:04 33.68563 -84.57140 5598 ft 258 kts 323°
2026-05-09 12:04 33.70244 -84.58013 6351 ft 270 kts 341°
2026-05-09 12:05 33.72151 -84.58200 7056 ft 280 kts 355°
2026-05-09 12:05 33.74108 -84.58161 7762 ft 283 kts 355°
2026-05-09 12:05 33.76090 -84.58128 8438 ft 286 kts 354°
2026-05-09 12:05 33.78091 -84.58100 9101 ft 290 kts 354°
2026-05-09 12:06 33.80124 -84.58078 9765 ft 294 kts 354°
2026-05-09 12:06 33.82159 -84.58063 10288 ft 302 kts 353°
2026-05-09 12:06 33.84344 -84.58086 10434 ft 324 kts 353°
2026-05-09 12:06 33.86671 -84.58142 10538 ft 345 kts 353°
2026-05-09 12:07 33.89119 -84.58226 10852 ft 357 kts 353°
2026-05-09 12:07 33.91618 -84.58316 11421 ft 361 kts 353°
2026-05-09 12:07 33.94139 -84.58402 12040 ft 364 kts 352°
2026-05-09 12:07 33.96684 -84.58482 12692 ft 367 kts 352°
2026-05-09 12:08 33.99255 -84.58559 13309 ft 371 kts 352°
2026-05-09 12:08 34.01848 -84.58633 13918 ft 374 kts 352°
2026-05-09 12:08 34.04458 -84.58708 14478 ft 377 kts 352°
2026-05-09 12:08 34.07090 -84.58783 15039 ft 379 kts 352°
2026-05-09 12:09 34.09733 -84.58860 15619 ft 381 kts 351°
2026-05-09 12:09 34.12393 -84.58941 16182 ft 383 kts 350°
2026-05-09 12:09 34.15036 -84.59024 16720 ft 386 kts 350°
2026-05-09 12:10 34.23165 -84.59273 18291 ft 393 kts 349°
2026-05-09 12:10 34.25910 -84.59357 18731 ft 395 kts 349°
2026-05-09 12:10 34.28646 -84.59537 19155 ft 390 kts 343°
2026-05-09 12:11 34.31294 -84.60139 19580 ft 387 kts 339°
2026-05-09 12:11 34.33949 -84.60797 19955 ft 391 kts 339°
2026-05-09 12:11 34.36622 -84.61455 20429 ft 392 kts 339°
2026-05-09 12:11 34.39304 -84.62113 20894 ft 393 kts 339°
2026-05-09 12:12 34.41962 -84.62765 21317 ft 395 kts 339°
2026-05-09 12:12 34.44662 -84.63429 21741 ft 397 kts 339°
2026-05-09 12:12 34.47378 -84.64097 22142 ft 399 kts 339°
2026-05-09 12:12 34.50112 -84.64770 22570 ft 401 kts 339°
2026-05-09 12:13 34.52853 -84.65448 22979 ft 403 kts 339°
2026-05-09 12:13 34.55608 -84.66130 23335 ft 405 kts 339°
2026-05-09 12:13 34.58374 -84.66815 23636 ft 406 kts 339°
2026-05-09 12:13 34.61162 -84.67502 23929 ft 410 kts 339°
2026-05-09 12:14 34.63965 -84.68191 24335 ft 412 kts 339°
2026-05-09 12:14 34.66780 -84.68886 24697 ft 413 kts 339°
2026-05-09 12:14 34.69604 -84.69584 25011 ft 415 kts 339°
2026-05-09 12:14 34.72437 -84.70288 25326 ft 417 kts 339°
2026-05-09 12:15 34.75292 -84.70996 25621 ft 419 kts 338°
2026-05-09 12:15 34.78157 -84.71708 25926 ft 422 kts 338°
2026-05-09 12:15 34.81042 -84.72424 26256 ft 424 kts 338°
2026-05-09 12:15 34.83940 -84.73143 26555 ft 426 kts 338°
2026-05-09 12:16 34.86854 -84.73867 26848 ft 428 kts 338°
2026-05-09 12:16 34.89782 -84.74593 27178 ft 430 kts 338°
2026-05-09 12:16 34.92722 -84.75321 27464 ft 432 kts 338°
2026-05-09 12:16 34.95677 -84.76054 27732 ft 434 kts 338°
2026-05-09 12:17 34.98649 -84.76794 27987 ft 436 kts 338°
2026-05-09 12:17 35.01626 -84.77541 28244 ft 438 kts 338°
2026-05-09 12:17 35.04583 -84.78284 28488 ft 440 kts 338°
2026-05-09 12:17 35.07590 -84.79039 28741 ft 443 kts 338°
2026-05-09 12:18 35.10615 -84.79794 28999 ft 445 kts 338°
2026-05-09 12:18 35.13657 -84.80550 29261 ft 447 kts 338°
2026-05-09 12:18 35.16697 -84.81300 29687 ft 444 kts 337°
2026-05-09 12:18 35.19718 -84.82045 30093 ft 442 kts 337°
2026-05-09 12:19 35.22728 -84.82797 30416 ft 441 kts 336°
2026-05-09 12:19 35.25735 -84.83555 30735 ft 440 kts 336°
2026-05-09 12:19 35.28729 -84.84312 31057 ft 439 kts 336°
2026-05-09 12:19 35.31718 -84.85068 31391 ft 438 kts 335°
2026-05-09 12:20 35.34696 -84.85821 31720 ft 436 kts 335°
2026-05-09 12:20 35.37668 -84.86570 32029 ft 436 kts 335°
2026-05-09 12:20 35.40639 -84.87318 32389 ft 435 kts 335°
2026-05-09 12:20 35.43601 -84.88065 32720 ft 434 kts 335°
2026-05-09 12:21 35.46509 -84.88799 33045 ft 433 kts 335°
2026-05-09 12:21 35.49461 -84.89543 33372 ft 432 kts 335°
2026-05-09 12:21 35.52400 -84.90285 33663 ft 431 kts 335°
2026-05-09 12:21 35.55339 -84.91029 33898 ft 431 kts 335°
2026-05-09 12:22 35.58269 -84.91770 33954 ft 428 kts 335°
2026-05-09 12:22 35.64077 -84.93239 33952 ft 425 kts 334°
2026-05-09 12:23 35.69855 -84.94709 33948 ft 422 kts 334°
2026-05-09 12:23 35.75597 -84.96172 33948 ft 421 kts 334°
2026-05-09 12:24 35.81324 -84.97634 33942 ft 421 kts 335°
2026-05-09 12:24 35.87071 -84.99096 33969 ft 421 kts 334°
2026-05-09 12:25 35.92821 -85.00560 33971 ft 421 kts 334°
2026-05-09 12:25 35.98531 -85.02021 33974 ft 421 kts 334°
2026-05-09 12:26 36.04272 -85.03497 33973 ft 421 kts 334°
2026-05-09 12:26 36.10023 -85.04971 33955 ft 422 kts 334°
2026-05-09 12:27 36.15776 -85.06442 33994 ft 423 kts 334°
2026-05-09 12:27 36.21532 -85.07922 33969 ft 423 kts 335°
2026-05-09 12:28 36.27301 -85.09407 33950 ft 423 kts 334°
2026-05-09 12:28 36.33075 -85.10894 33938 ft 424 kts 334°
2026-05-09 12:29 36.38812 -85.12374 33934 ft 424 kts 334°
2026-05-09 12:29 36.44584 -85.13870 33961 ft 423 kts 335°
2026-05-09 12:30 36.50353 -85.15366 33938 ft 423 kts 335°
2026-05-09 12:30 36.59024 -85.17608 33930 ft 424 kts 335°
2026-05-09 12:31 36.67696 -85.19870 33955 ft 424 kts 336°
2026-05-09 12:32 36.73461 -85.21366 33954 ft 423 kts 336°
2026-05-09 12:32 36.79184 -85.22857 33935 ft 422 kts 336°
2026-05-09 12:33 36.84940 -85.24361 33929 ft 422 kts 336°
2026-05-09 12:33 36.90688 -85.25875 33970 ft 422 kts 336°
2026-05-09 12:34 36.96432 -85.27390 33938 ft 422 kts 336°
2026-05-09 12:34 37.02173 -85.28890 33924 ft 421 kts 336°
2026-05-09 12:35 37.07903 -85.30396 33915 ft 421 kts 336°
2026-05-09 12:35 37.13636 -85.31906 33912 ft 421 kts 336°
2026-05-09 12:36 37.19358 -85.33407 33897 ft 418 kts 337°
2026-05-09 12:36 37.25052 -85.34907 33878 ft 418 kts 337°
2026-05-09 12:37 37.30704 -85.36411 33874 ft 418 kts 337°
2026-05-09 12:37 37.36407 -85.37928 33880 ft 419 kts 337°
2026-05-09 12:38 37.42108 -85.39447 33925 ft 419 kts 337°
2026-05-09 12:38 37.46885 -85.40711 33915 ft 418 kts 337°
2026-05-09 12:39 37.52581 -85.42227 33914 ft 418 kts 337°
2026-05-09 12:39 37.58231 -85.43737 33883 ft 417 kts 338°
2026-05-09 12:40 37.63927 -85.45256 33919 ft 418 kts 338°
2026-05-09 12:40 37.69613 -85.46767 33916 ft 418 kts 338°
2026-05-09 12:41 37.75299 -85.48290 33917 ft 417 kts 338°
2026-05-09 12:41 37.80987 -85.49820 33912 ft 417 kts 338°
2026-05-09 12:42 37.86629 -85.51344 33905 ft 417 kts 338°
2026-05-09 12:42 37.92292 -85.52862 33900 ft 415 kts 338°
2026-05-09 12:43 37.97941 -85.54387 33886 ft 414 kts 338°
2026-05-09 12:43 38.03575 -85.55920 33884 ft 415 kts 338°
2026-05-09 12:43 38.06324 -85.56893 33886 ft 402 kts 328°
2026-05-09 12:44 38.08865 -85.58348 33891 ft 400 kts 327°
2026-05-09 12:44 38.13991 -85.61160 33911 ft 403 kts 329°
2026-05-09 12:45 38.19226 -85.63755 33906 ft 404 kts 330°
2026-05-09 12:45 38.24439 -85.66314 33902 ft 404 kts 330°
2026-05-09 12:46 38.29654 -85.68952 33896 ft 403 kts 329°
2026-05-09 12:46 38.34861 -85.71628 33886 ft 403 kts 329°
2026-05-09 12:47 38.40065 -85.74301 33881 ft 403 kts 329°
2026-05-09 12:47 38.45272 -85.76972 33882 ft 403 kts 329°
2026-05-09 12:48 38.50492 -85.79634 33879 ft 404 kts 329°
2026-05-09 12:48 38.55704 -85.82301 33875 ft 404 kts 329°
2026-05-09 12:49 38.60914 -85.84977 33876 ft 401 kts 330°
2026-05-09 12:49 38.66064 -85.87633 33861 ft 398 kts 330°
2026-05-09 12:50 38.71208 -85.90297 33857 ft 399 kts 330°
2026-05-09 12:50 38.76359 -85.92957 33854 ft 399 kts 330°
2026-05-09 12:51 38.81525 -85.95619 33853 ft 400 kts 330°
2026-05-09 12:51 38.86642 -85.98268 33886 ft 399 kts 330°
2026-05-09 12:52 38.91787 -86.00941 33882 ft 398 kts 330°
2026-05-09 12:52 38.96921 -86.03614 33882 ft 398 kts 330°
2026-05-09 12:53 39.02048 -86.06282 33878 ft 397 kts 330°
2026-05-09 12:53 39.07172 -86.08952 33903 ft 396 kts 330°
2026-05-09 12:54 39.12245 -86.11601 33869 ft 392 kts 330°
2026-05-09 12:54 39.17304 -86.14239 33864 ft 392 kts 330°
2026-05-09 12:55 39.22329 -86.16867 33862 ft 392 kts 330°
2026-05-09 12:55 39.27387 -86.19527 33835 ft 393 kts 330°
2026-05-09 12:56 39.32453 -86.22192 33871 ft 393 kts 331°
2026-05-09 12:56 39.37512 -86.24851 33868 ft 392 kts 330°
2026-05-09 12:57 39.42569 -86.27520 33864 ft 392 kts 330°
2026-05-09 12:57 39.47624 -86.30181 33862 ft 392 kts 331°
2026-05-09 12:58 39.52673 -86.32849 33918 ft 391 kts 331°
2026-05-09 12:58 39.57672 -86.35494 33860 ft 386 kts 331°
2026-05-09 12:59 39.62640 -86.38129 33856 ft 386 kts 330°
2026-05-09 12:59 39.67608 -86.40772 33856 ft 386 kts 330°
2026-05-09 13:00 39.72573 -86.43415 33850 ft 386 kts 330°
2026-05-09 13:00 39.77515 -86.46046 33898 ft 386 kts 330°
2026-05-09 13:01 39.82474 -86.48696 33892 ft 385 kts 330°
2026-05-09 13:01 39.87425 -86.51347 33871 ft 384 kts 330°
2026-05-09 13:02 39.92369 -86.53992 33861 ft 384 kts 330°
2026-05-09 13:02 39.97308 -86.56633 33850 ft 383 kts 330°
2026-05-09 13:03 40.02202 -86.59261 33880 ft 382 kts 331°
2026-05-09 13:03 40.07109 -86.61891 33873 ft 380 kts 331°
2026-05-09 13:04 40.12008 -86.64503 33859 ft 379 kts 331°
2026-05-09 13:04 40.16893 -86.67106 33860 ft 379 kts 331°
2026-05-09 13:05 40.21768 -86.69710 33882 ft 378 kts 331°
2026-05-09 13:05 40.26602 -86.72293 33849 ft 374 kts 331°
2026-05-09 13:06 40.31419 -86.74875 33840 ft 374 kts 331°
2026-05-09 13:06 40.36230 -86.77462 33844 ft 374 kts 331°
2026-05-09 13:07 40.41011 -86.80034 33846 ft 374 kts 331°
2026-05-09 13:07 40.45825 -86.82627 33886 ft 374 kts 331°
2026-05-09 13:08 40.50634 -86.85220 33872 ft 373 kts 331°
2026-05-09 13:08 40.55428 -86.87813 33862 ft 372 kts 330°
2026-05-09 13:09 40.60221 -86.90406 33826 ft 372 kts 330°
2026-05-09 13:09 40.65013 -86.93000 33819 ft 372 kts 330°
2026-05-09 13:10 40.69803 -86.95604 33800 ft 372 kts 331°
2026-05-09 13:10 40.74586 -86.98205 33799 ft 372 kts 331°
2026-05-09 13:11 40.79370 -87.00811 33814 ft 371 kts 331°
2026-05-09 13:11 40.84118 -87.03397 33818 ft 371 kts 331°
2026-05-09 13:12 40.88894 -87.06007 33856 ft 370 kts 330°
2026-05-09 13:12 40.93630 -87.08599 33830 ft 367 kts 330°
2026-05-09 13:13 40.98347 -87.11188 33824 ft 367 kts 330°
2026-05-09 13:13 41.03067 -87.13782 33825 ft 367 kts 330°
2026-05-09 13:14 41.08136 -87.15343 33815 ft 384 kts 346°
2026-05-09 13:16 41.29335 -87.17838 33797 ft 382 kts 345°
2026-05-09 13:16 41.34638 -87.18467 33829 ft 382 kts 345°
2026-05-09 13:17 41.39932 -87.19097 33805 ft 382 kts 345°
2026-05-09 13:17 41.45231 -87.19736 33501 ft 382 kts 345°
2026-05-09 13:17 41.47877 -87.20057 33225 ft 382 kts 345°
2026-05-09 13:18 41.50527 -87.20378 32951 ft 383 kts 345°
2026-05-09 13:18 41.53182 -87.20696 32745 ft 384 kts 345°
2026-05-09 13:18 41.55855 -87.21016 32159 ft 386 kts 345°
2026-05-09 13:18 41.58518 -87.21334 31698 ft 381 kts 345°
2026-05-09 13:19 41.61147 -87.21645 31201 ft 378 kts 345°
2026-05-09 13:19 41.63758 -87.21956 30703 ft 375 kts 345°
2026-05-09 13:19 41.66355 -87.22266 30214 ft 372 kts 345°
2026-05-09 13:19 41.68887 -87.22566 29722 ft 369 kts 345°
2026-05-09 13:20 41.71433 -87.22870 29205 ft 364 kts 345°
2026-05-09 13:20 41.73940 -87.23169 28743 ft 359 kts 345°
2026-05-09 13:20 41.76417 -87.23466 28282 ft 356 kts 345°
2026-05-09 13:20 41.78881 -87.23766 27825 ft 355 kts 345°
2026-05-09 13:21 41.81339 -87.24070 27369 ft 354 kts 345°
2026-05-09 13:21 41.83792 -87.24372 26923 ft 353 kts 346°
2026-05-09 13:21 41.86238 -87.24671 26467 ft 352 kts 346°
2026-05-09 13:21 41.88679 -87.24970 26020 ft 352 kts 346°
2026-05-09 13:22 41.91113 -87.25265 25572 ft 351 kts 346°
2026-05-09 13:22 41.93546 -87.25558 25124 ft 351 kts 346°
2026-05-09 13:22 41.95980 -87.25850 24720 ft 350 kts 347°
2026-05-09 13:23 42.05694 -87.27031 22959 ft 351 kts 347°
2026-05-09 13:23 42.08120 -87.27330 22554 ft 350 kts 347°
2026-05-09 13:24 42.10540 -87.27628 22148 ft 348 kts 347°
2026-05-09 13:24 42.12947 -87.27922 21762 ft 346 kts 348°
2026-05-09 13:24 42.15341 -87.28212 21370 ft 345 kts 348°
2026-05-09 13:24 42.17725 -87.28501 20997 ft 344 kts 347°
2026-05-09 13:25 42.20104 -87.28789 20593 ft 342 kts 347°
2026-05-09 13:25 42.22468 -87.29077 20211 ft 341 kts 347°
2026-05-09 13:25 42.26379 -87.29554 19550 ft 338 kts 347°
2026-05-09 13:26 42.28714 -87.29840 19153 ft 337 kts 347°
2026-05-09 13:26 42.31044 -87.30128 18749 ft 335 kts 348°
2026-05-09 13:26 42.33360 -87.30411 18345 ft 333 kts 348°
2026-05-09 13:26 42.35667 -87.30696 17924 ft 332 kts 348°
2026-05-09 13:27 42.37965 -87.30982 17575 ft 329 kts 347°
2026-05-09 13:27 42.40242 -87.31263 17388 ft 329 kts 347°
2026-05-09 13:27 42.42521 -87.31545 16912 ft 329 kts 347°
2026-05-09 13:27 42.44800 -87.31828 16439 ft 328 kts 347°
2026-05-09 13:28 42.47044 -87.32242 15772 ft 325 kts 337°
2026-05-09 13:28 42.49120 -87.33364 14897 ft 330 kts 330°
2026-05-09 13:28 42.51237 -87.34639 14251 ft 334 kts 330°
2026-05-09 13:28 42.53349 -87.35911 13829 ft 330 kts 330°
2026-05-09 13:29 42.55435 -87.37166 13405 ft 326 kts 330°
2026-05-09 13:29 42.57504 -87.38410 12968 ft 322 kts 330°
2026-05-09 13:29 42.59540 -87.39633 12571 ft 318 kts 330°
2026-05-09 13:29 42.61552 -87.40843 12129 ft 315 kts 330°
2026-05-09 13:30 42.63542 -87.42044 11730 ft 311 kts 330°
2026-05-09 13:30 42.65506 -87.43233 11320 ft 308 kts 330°
2026-05-09 13:30 42.67453 -87.44410 10910 ft 305 kts 330°
2026-05-09 13:30 42.69381 -87.45576 10527 ft 301 kts 330°
2026-05-09 13:31 42.71257 -87.46709 10392 ft 290 kts 330°
2026-05-09 13:31 42.73067 -87.47800 10270 ft 278 kts 329°
2026-05-09 13:31 42.74814 -87.48855 10051 ft 271 kts 329°
2026-05-09 13:31 42.76506 -87.49883 9902 ft 269 kts 329°
2026-05-09 13:32 42.78216 -87.50926 9769 ft 269 kts 329°
2026-05-09 13:32 42.81619 -87.52998 9077 ft 267 kts 329°
2026-05-09 13:32 42.83311 -87.54027 8707 ft 265 kts 329°
2026-05-09 13:33 42.85023 -87.54983 8335 ft 267 kts 335°
2026-05-09 13:33 42.86790 -87.55765 7943 ft 266 kts 335°
2026-05-09 13:33 42.88550 -87.56548 7560 ft 265 kts 335°
2026-05-09 13:33 42.90299 -87.57327 7161 ft 264 kts 335°
2026-05-09 13:34 42.92038 -87.58103 6793 ft 262 kts 335°
2026-05-09 13:34 42.93743 -87.58865 6430 ft 261 kts 335°
2026-05-09 13:34 42.95460 -87.59634 6050 ft 259 kts 335°
2026-05-09 13:34 42.97170 -87.60400 5663 ft 258 kts 335°
2026-05-09 13:35 42.98864 -87.61174 5294 ft 254 kts 332°
2026-05-09 13:35 43.00202 -87.62567 4941 ft 238 kts 299°
2026-05-09 13:35 43.00577 -87.64693 4603 ft 233 kts 265°
2026-05-09 13:35 43.00220 -87.66852 4256 ft 233 kts 256°
2026-05-09 13:36 42.99687 -87.68939 3911 ft 232 kts 253°
2026-05-09 13:36 42.99117 -87.70999 3558 ft 231 kts 253°
2026-05-09 13:36 42.98564 -87.73032 3274 ft 226 kts 254°
2026-05-09 13:36 42.98033 -87.75032 2925 ft 222 kts 254°
2026-05-09 13:37 42.97527 -87.77000 2581 ft 217 kts 255°
2026-05-09 13:37 42.97045 -87.78924 2296 ft 211 kts 255°
2026-05-09 13:37 42.96591 -87.80754 2018 ft 194 kts 255°
2026-05-09 13:37 42.96184 -87.82397 1752 ft 173 kts 254°
2026-05-09 13:38 42.95829 -87.83834 1527 ft 150 kts 253°
2026-05-09 13:38 42.95508 -87.85151 1334 ft 143 kts 252°
2026-05-09 13:38 42.95204 -87.86424 1107 ft 140 kts 254°
2026-05-09 13:38 42.94910 -87.87672 937 ft 140 kts 253°
2026-05-09 13:39 42.94603 -87.88922 748 ft 137 kts 252°
2026-05-09 13:39 42.94319 -87.90098 687 ft 118 kts 251°
2026-05-09 13:39 42.94122 -87.90900 686 ft 63 kts 251°
2026-05-09 13:39 42.94016 -87.91336 684 ft 43 kts 251°
2026-05-09 13:40 42.93930 -87.91685 687 ft 23 kts 250°
2026-05-09 13:40 42.93954 -87.91780 684 ft 8 kts 349°
2026-05-09 13:40 42.94018 -87.91774 686 ft 9 kts 47°
2026-05-09 13:40 42.94040 -87.91696 684 ft 8 kts 69°
2026-05-09 13:41 42.94071 -87.91584 682 ft 17 kts 72°
2026-05-09 13:41 42.94116 -87.91396 683 ft 22 kts 72°
2026-05-09 13:41 42.94163 -87.91202 688 ft 21 kts 71°
2026-05-09 13:41 42.94207 -87.91022 688 ft 19 kts 71°
2026-05-09 13:42 42.94247 -87.90854 686 ft 18 kts 71°
2026-05-09 13:42 42.94287 -87.90705 682 ft 16 kts 65°
2026-05-09 13:42 42.94357 -87.90604 684 ft 14 kts 42°
2026-05-09 13:42 42.94403 -87.90503 682 ft 12 kts 68°
2026-05-09 13:43 42.94430 -87.90399 681 ft 13 kts 71°
2026-05-09 13:43 42.94460 -87.90271 680 ft 15 kts 81°
2026-05-09 13:43 42.94483 -87.90129 686 ft 15 kts 73°
2026-05-09 13:43 42.94514 -87.90004 684 ft 13 kts 71°
2026-05-09 13:44 42.94550 -87.89875 686 ft 16 kts 62°
2026-05-09 13:44 42.94611 -87.89763 683 ft 14 kts 37°
2026-05-09 13:44 42.94704 -87.89733 684 ft 17 kts
2026-05-09 13:44 42.94834 -87.89713 685 ft 19 kts
2026-05-09 13:45 42.94950 -87.89736 681 ft 17 kts 319°
2026-05-09 13:45 42.94985 -87.89842 688 ft 12 kts 250°
2026-05-09 13:45 42.94952 -87.89939 686 ft 11 kts 223°
2026-05-09 13:45 42.94889 -87.89992 685 ft 10 kts 210°
2026-05-09 13:46 42.94857 -87.89981 683 ft 5 kts 117°
2026-05-09 13:46 42.94850 -87.89939 683 ft 3 kts 101°
2026-05-09 13:46 42.94847 -87.89917 684 ft 2 kts 100°
2026-05-09 13:46 42.94847 -87.89911 685 ft 0 kts 100°
2026-05-09 13:51 42.94847 -87.89910 686 ft 0 kts 100°